• In Austria
  • List of Countries
  • For 7 days
  • Water Temperature
  • Satellite Maps
  • Weather Map
  • News
  • Weather Widgets
  • user-avatar
    Login

    Hourly Weather Bialuty

    Today, 22 September, Saturday

    Time Temperature Precipitation Wind Pressure Humidity
    00:00 +20°C° 0.1 mm 7 mps 749 mmHg 64%
    01:00 +18°C° 0 mm 7 mps 749 mmHg 71%
    02:00 +16°C° 0.7 mm 7 mps 750 mmHg 74%
    03:00 +15°C° 0.7 mm 6 mps 751 mmHg 77%
    04:00 +14°C° 0.7 mm 5 mps 752 mmHg 80%
    05:00 +13°C° 0.1 mm 5 mps 753 mmHg 78%
    06:00 +13°C° 0.1 mm 5 mps 753 mmHg 77%
    07:00 +13°C° 0.1 mm 5 mps 754 mmHg 75%
    08:00 +14°C° 0 mm 6 mps 754 mmHg 69%
    09:00 +14°C° 0 mm 6 mps 754 mmHg 63%
    10:00 +15°C° 0 mm 7 mps 754 mmHg 57%
    11:00 +16°C° 0 mm 7 mps 754 mmHg 54%
    12:00 +16°C° 0 mm 7 mps 754 mmHg 52%
    13:00 +17°C° 0 mm 7 mps 754 mmHg 49%
    14:00 +16°C° 0 mm 7 mps 754 mmHg 50%
    15:00 +16°C° 0 mm 6 mps 754 mmHg 50%
    16:00 +16°C° 0 mm 6 mps 754 mmHg 51%
    17:00 +15°C° 0 mm 5 mps 754 mmHg 55%
    18:00 +14°C° 0 mm 4 mps 754 mmHg 59%
    19:00 +12°C° 0 mm 3 mps 754 mmHg 63%
    20:00 +12°C° 0 mm 3 mps 754 mmHg 65%
    21:00 +12°C° 0 mm 3 mps 754 mmHg 66%
    22:00 +11°C° 0 mm 3 mps 754 mmHg 67%
    23:00 +11°C° 0 mm 3 mps 754 mmHg 68%

    Tomorrow, 23 September, Sunday

    Time Temperature Precipitation Wind Pressure Humidity
    00:00 +11°C° 0 mm 3 mps 754 mmHg 69%
    01:00 +11°C° 0 mm 4 mps 754 mmHg 71%
    02:00 +10°C° 0 mm 3 mps 754 mmHg 71%
    03:00 +10°C° 0 mm 3 mps 754 mmHg 72%
    04:00 +10°C° 0 mm 3 mps 754 mmHg 73%
    05:00 +10°C° 0 mm 4 mps 754 mmHg 73%
    06:00 +11°C° 0 mm 4 mps 753 mmHg 73%
    07:00 +12°C° 0 mm 4 mps 753 mmHg 72%
    08:00 +12°C° 0.1 mm 5 mps 753 mmHg 71%
    09:00 +13°C° 0.1 mm 5 mps 753 mmHg 69%
    10:00 +14°C° 0.1 mm 5 mps 753 mmHg 67%
    11:00 +14°C° 0.1 mm 5 mps 753 mmHg 65%
    12:00 +15°C° 0.1 mm 5 mps 753 mmHg 63%
    13:00 +15°C° 0.1 mm 5 mps 752 mmHg 61%
    14:00 +15°C° 0.1 mm 4 mps 752 mmHg 65%
    15:00 +14°C° 0.1 mm 4 mps 751 mmHg 68%
    16:00 +14°C° 0.1 mm 3 mps 751 mmHg 71%
    17:00 +13°C° 0.2 mm 3 mps 750 mmHg 76%
    18:00 +12°C° 0.2 mm 3 mps 750 mmHg 81%
    19:00 +12°C° 0.2 mm 2 mps 749 mmHg 85%
    20:00 +11°C° 2.6 mm 3 mps 748 mmHg 88%
    21:00 +11°C° 2.6 mm 3 mps 746 mmHg 91%
    22:00 +11°C° 2.6 mm 4 mps 745 mmHg 93%
    23:00 +11°C° 3.6 mm 4 mps 744 mmHg 93%

    Day after tomorrow, 24 September, Monday

    Time Temperature Precipitation Wind Pressure Humidity
    00:00 +10°C° 3.6 mm 5 mps 743 mmHg 92%
    01:00 +9°C° 3.6 mm 5 mps 742 mmHg 92%
    02:00 +9°C° 2.3 mm 7 mps 742 mmHg 91%
    03:00 +9°C° 2.3 mm 8 mps 743 mmHg 89%
    04:00 +7°C° 2.3 mm 10 mps 743 mmHg 88%
    05:00 +8°C° 0.9 mm 9 mps 745 mmHg 87%
    06:00 +9°C° 0.9 mm 8 mps 747 mmHg 86%
    07:00 +9°C° 0.9 mm 8 mps 748 mmHg 85%
    08:00 +10°C° 0.1 mm 8 mps 749 mmHg 79%
    09:00 +10°C° 0.1 mm 9 mps 750 mmHg 74%
    10:00 +11°C° 0.1 mm 10 mps 751 mmHg 68%
    11:00 +12°C° 0.2 mm 10 mps 751 mmHg 65%
    12:00 +12°C° 0.2 mm 10 mps 752 mmHg 61%
    13:00 +12°C° 0.2 mm 10 mps 752 mmHg 57%
    14:00 +12°C° 0.3 mm 10 mps 753 mmHg 59%
    15:00 +11°C° 0.3 mm 9 mps 753 mmHg 61%
    16:00 +11°C° 0.3 mm 9 mps 754 mmHg 63%
    17:00 +10°C° 0.3 mm 8 mps 755 mmHg 67%
    18:00 +9°C° 0.3 mm 8 mps 755 mmHg 71%
    19:00 +8°C° 0.3 mm 7 mps 756 mmHg 75%
    20:00 +8°C° 0 mm 7 mps 757 mmHg 75%
    21:00 +7°C° 0 mm 6 mps 758 mmHg 75%
    22:00 +7°C° 0 mm 5 mps 759 mmHg 74%
    23:00 +6°C° 0 mm 5 mps 759 mmHg 75%

    25 September, Tuesday

    Time Temperature Precipitation Wind Pressure Humidity
    00:00 +6°C° 0 mm 5 mps 760 mmHg 75%
    01:00 +6°C° 0 mm 5 mps 761 mmHg 76%
    02:00 +6°C° 0 mm 5 mps 761 mmHg 76%
    03:00 +5°C° 0 mm 5 mps 761 mmHg 77%
    04:00 +5°C° 0 mm 5 mps 762 mmHg 78%
    05:00 +5°C° 0 mm 5 mps 762 mmHg 75%
    06:00 +5°C° 0 mm 6 mps 763 mmHg 71%
    07:00 +5°C° 0 mm 6 mps 763 mmHg 68%
    08:00 +8°C° 0.1 mm 7 mps 764 mmHg 62%
    09:00 +9°C° 0.1 mm 7 mps 765 mmHg 57%
    10:00 +11°C° 0.1 mm 8 mps 765 mmHg 51%
    11:00 +11°C° 0.1 mm 8 mps 765 mmHg 48%
    12:00 +12°C° 0.1 mm 8 mps 766 mmHg 45%
    13:00 +12°C° 0.1 mm 8 mps 766 mmHg 41%
    14:00 +12°C° 0 mm 7 mps 766 mmHg 42%
    15:00 +13°C° 0 mm 5 mps 766 mmHg 43%
    16:00 +13°C° 0 mm 4 mps 767 mmHg 44%
    17:00 +12°C° 0 mm 4 mps 767 mmHg 47%
    18:00 +11°C° 0 mm 4 mps 767 mmHg 50%
    19:00 +10°C° 0 mm 3 mps 768 mmHg 52%
    20:00 +9°C° 0 mm 3 mps 768 mmHg 54%
    21:00 +8°C° 0 mm 3 mps 768 mmHg 56%
    22:00 +7°C° 0 mm 4 mps 768 mmHg 58%
    23:00 +6°C° 0 mm 4 mps 768 mmHg 62%

    26 September, Wednesday

    Time Temperature Precipitation Wind Pressure Humidity
    00:00 +7°C° 0 mm 3 mps 768 mmHg 65%
    01:00 +7°C° 0 mm 3 mps 768 mmHg 68%
    02:00 +6°C° 0 mm 4 mps 768 mmHg 68%
    03:00 +6°C° 0 mm 4 mps 768 mmHg 67%
    04:00 +6°C° 0 mm 4 mps 767 mmHg 66%
    05:00 +6°C° 0 mm 5 mps 767 mmHg 66%
    06:00 +6°C° 0 mm 5 mps 767 mmHg 65%
    07:00 +7°C° 0 mm 5 mps 767 mmHg 64%
    08:00 +8°C° 0 mm 6 mps 767 mmHg 60%
    09:00 +10°C° 0 mm 6 mps 766 mmHg 55%
    10:00 +11°C° 0 mm 7 mps 766 mmHg 51%
    11:00 +12°C° 0 mm 7 mps 765 mmHg 49%
    12:00 +12°C° 0 mm 7 mps 765 mmHg 48%
    13:00 +12°C° 0 mm 7 mps 764 mmHg 47%
    14:00 +12°C° 0 mm 7 mps 763 mmHg 47%
    15:00 +13°C° 0 mm 6 mps 763 mmHg 48%
    16:00 +13°C° 0 mm 6 mps 762 mmHg 48%
    17:00 +13°C° 0 mm 5 mps 762 mmHg 49%
    18:00 +12°C° 0 mm 5 mps 761 mmHg 51%
    19:00 +12°C° 0 mm 5 mps 761 mmHg 52%
    20:00 +12°C° 0 mm 5 mps 761 mmHg 51%
    21:00 +12°C° 0 mm 5 mps 761 mmHg 49%
    22:00 +11°C° 0 mm 6 mps 760 mmHg 48%
    23:00 +11°C° 0 mm 6 mps 760 mmHg 50%

    27 September, Thursday

    Time Temperature Precipitation Wind Pressure Humidity
    00:00 +11°C° 0 mm 6 mps 760 mmHg 51%
    01:00 +10°C° 0 mm 6 mps 759 mmHg 52%
    02:00 +10°C° 0 mm 6 mps 759 mmHg 53%
    03:00 +10°C° 0 mm 6 mps 759 mmHg 53%
    04:00 +10°C° 0 mm 6 mps 758 mmHg 54%
    05:00 +10°C° 0 mm 7 mps 758 mmHg 54%
    06:00 +11°C° 0 mm 7 mps 758 mmHg 53%
    07:00 +11°C° 0 mm 7 mps 757 mmHg 53%
    08:00 +11°C° 0 mm 7 mps 757 mmHg 54%
    09:00 +11°C° 0 mm 7 mps 757 mmHg 54%
    10:00 +12°C° 0 mm 7 mps 756 mmHg 54%
    11:00 +14°C° 0.1 mm 7 mps 756 mmHg 53%
    12:00 +16°C° 0.1 mm 7 mps 755 mmHg 51%
    13:00 +17°C° 0.1 mm 8 mps 755 mmHg 49%
    14:00 +17°C° 0.1 mm 7 mps 754 mmHg 50%
    15:00 +17°C° 0.1 mm 7 mps 754 mmHg 51%
    16:00 +17°C° 0.1 mm 6 mps 753 mmHg 51%
    17:00 +16°C° 0 mm 6 mps 753 mmHg 50%
    18:00 +16°C° 0 mm 6 mps 752 mmHg 49%
    19:00 +15°C° 0 mm 6 mps 752 mmHg 49%
    20:00 +15°C° 0 mm 6 mps 752 mmHg 49%
    21:00 +15°C° 0 mm 7 mps 752 mmHg 50%
    22:00 +15°C° 0 mm 7 mps 751 mmHg 50%
    23:00 +14°C° 0.1 mm 7 mps 752 mmHg 58%
    Show more